Probability
0 0 0 0 0 0 0 0 0 0 0 0 0 0 0 0 0 0 0 0 0 0 0 0 0 0 0 0 0 0 0 0 0 0 0 0 0 0 0 0 0 0 0 0
0 0 0 0 0 0 0 0 0 0 0 0 0 0 0 0 0 0 0 0 0 0 0 0 0 0 0 0 0 0 0 0 0 0 0 0 0 0 0 0 0 0 0 0
0 0 0 0 0 0 0 0 0 0 0 0 0 0 0 0 0 0 0 0 0 0 0 0 0 0 0 0 0 0 0 0 0 0 0 0 0 0 0 0 0 0 0 0
0 0 0 0 0 0 0 0 0 0 0 0 0 0 0 0 0 0 0 0 0 0 0 0 0 0 0 0 0 0 0 0 0 0 0 0 0 0 0 0 0 0 0 0
0 0 0 0 0 0 0 0 0 0 0 0 0 0 0 0 0 0 0 0 0 0 0 0 0 0 0 0 0 0 0 0 0 0 0 0 0 0 0 0 0 0 0 0
0 0 0 0 0 0 0 0 0 0 0 0 0 0 0 0 0 0 0 0 0 0 0 0 0 0 0 0 0 0 0 0 0 0 0 0 0 0 0 0 0 0 0 0
0 0 0 0 0 0 0 0 0 0 0 0 0 0 0 0 0 0 0 0 0 0 0 0 0 0 0 0 0 0 0 0 0 0 0 0 0 0 0 0 0 0 0 0
0 0 0 0 0 0 0 0 0 0 0 0 0 0 0 0 0 0 0 0 0 0 0 0 0 0 0 0 0 0 0 0 0 0 0 0 0 0 0 0 0 0 0 0
0 0 0 0 0 0 0 0 0 0 0 0 0 0 0 0 0 0 0 0 0 0 0 0 0 0 0 0 0 0 0 0 0 0 0 0 0 0 0 0 0 0 0 0
0 0 0 0 0 0 0 0 0 0 0 0 0 0 0 0 0 0 0 0 0 0 0 0 0 0 0 0 0 0 0 0 0 0 0 0 0 0 0 0 0 0 0 0
0 0 0 0 0 0 0 0 0 0 0 0 0 0 0 0 0 0 0 0 0 0 0 0 0 0 0 0 0 0 0 0 0 0 0 0 0 0 0 0 0 0 0 0
0 0 0 0 0 0 0 0 0 0 0 0 0 0 0 0 0 0 0 0 0 0 0 0 0 0 0 0 0 0 0 0 0 0 0 0 0 0 0 0 0 0 0 0
0 0 0 0 0 0 0 0 0 0 0 0 0 0 0 0 0 0 0 0 0 0 0 0 0 0 0 0 0 0 0 0 0 0 0 0 0 0 0 0 0 0 0 0
0 0 0 0 0 0 0 0 0 0 0 0 0 0 0 0 0 0 0 0 0 0 0 0 0 0 0 0 0 0 0 0 0 0 0 0 0 0 0 0 0 0 0 0
0 0 0 0 0 0 0 0 0 0 0 0 0 0 0 0 0 0 0 0 0 0 0 0 0 0 0 0 0 0 0 0 0 0 0 0 0 0 0 0 0 0 0 0
0 0 0 0 0 0 0 0 0 0 0 0 0 0 0 0 0 0 0 0 0 0 0 0 0 0 0 0 0 0 0 0 0 0 0 0 0 0 0 0 0 0 0 0
0 0 0 0 0 0 0 0 0 0 0 0 0 0 0 0 0 0 0 0 0 0 0 0 0 0 0 0 0 0 0 0 0 0 0 0 0 0 0 0 0 0 0 0
0 0 0 0 0 0 0 0 0 0 0 0 0 0 0 0 0 0 0 0 0 0 0 0 0 0 0 0 0 0 0 0 0 0 0 0 0 0 0 0 0 0 0 0
0 0 0 0 0 0 0 0 0 0 0 0 0 0 0 0 0 0 0 0 0 0 0 0 0 0 0 0 0 0 0 0 0 0 0 0 0 0 0 0 0 0 0 0
0 0 0 0 0 0 0 0 0 0 0 0 0 0 0 0 0 0 0 0 0 0 0 0 0 0 0 0 0 0 0 0 0 0 0 0 0 0 0 0 0 0 0 0
0 0 0 0 0 0 0 0 0 0 0 0 0 0 0 0 0 0 0 0 0 0 0 0 0 0 0 0 0 0 0 0 0 0 0 0 0 0 0 0 0 0 0 0
0 0 0 0 0 0 0 0 0 0 0 0 0 0 0 0 0 0 0 0 0 0 0 0 0 0 0 0 0 0 0 0 0 0 0 0 0 0 0 0 0 0 0 0
0 0 0 0 0 0 0 0 0 0 0 0 0 0 0 0 0 0 0 0 0 0 0 0 0 0 0 0 0 0 0 0 0 0 0 0 0 0 0 0 0 0 0 0
0 0 0 0 0 0 0 0 0 0 0 0 0 0 0 0 0 0 0 0 0 0 0 0 0 0 0 0 0 0 0 0 0 0 0 0 0 0 0 0 0 0 0 0
0 0 0 0 0 0 0 0 0 0 0 0 0 0 0 0 0 0 0 0 0 0 0 0 0 0 0 0 0 0 0 0 0 0 0 0 0 0 0 0 0 0 0 0
0 0 0 0 0 0 0 0 0 0 0 0 0 0 0 0 0 0 0 0 0 0 0 0 0 0 0 0 0 0 0 0 0 0 0 0 0 0 0 0 0 0 0 0
0 0 0 0 0 0 0 0 0 0 0 0 0 0 0 0 0 0 0 0 0 0 0 0 0 0 0 0 0 0 0 0 0 0 0 0 0 0 0 0 0 0 0 0
Wind_Speed
10 8 7 10 11 11 14 16 18 18 18 17 15 13 11 10 9 10 11 12 12 12 12 12 12 12 11 10 10 9 9 9 8 7 6 5 5 5 5 4 5 5 5 5
11 9 9 13 15 16 17 17 19 20 21 18 16 14 12 12 11 12 13 13 13 13 13 13 14 13 12 12 11 10 10 9 7 7 6 6 6 5 5 5 6 5 6 6
13 9 9 15 13 13 13 14 15 18 18 15 14 13 13 12 12 13 14 13 14 14 14 13 14 13 13 13 12 11 10 9 8 8 7 7 6 6 6 7 6 6 7 6
11 12 16 9 3 6 11 14 13 15 17 16 15 13 12 12 12 13 13 12 13 13 13 13 13 13 12 12 12 12 11 10 9 8 7 7 6 6 7 6 6 6 7 7
9 13 14 11 7 6 8 10 7 9 11 12 11 9 10 8 10 11 11 11 11 12 12 13 13 13 13 13 12 12 11 10 9 9 8 7 7 7 6 5 6 6 6 6
9 12 12 7 2 1 6 7 6 8 9 10 6 6 5 4 5 8 8 8 9 10 11 12 12 13 13 13 13 12 11 10 9 8 7 7 6 6 5 5 5 6 5 6
12 13 11 6 1 4 7 4 9 10 10 9 7 9 11 9 6 5 6 7 9 10 11 11 12 13 14 13 13 11 10 9 8 7 7 6 5 4 4 4 4 5 5 5
9 11 8 3 2 3 5 8 9 11 12 12 12 12 10 8 6 4 5 7 10 10 10 10 12 13 14 13 11 10 9 8 8 7 6 4 4 3 3 3 4 4 4 4
7 6 4 3 4 6 8 10 11 13 14 13 14 12 11 9 6 5 6 7 9 10 10 10 12 13 13 11 10 10 10 9 7 7 5 4 4 4 3 2 3 3 2 3
9 9 8 8 7 6 9 12 14 14 14 14 14 14 12 9 7 5 6 7 8 10 11 11 12 12 11 11 11 11 11 9 8 7 6 5 3 2 1 1 1 1 2 2
15 14 13 8 8 11 13 15 15 15 15 14 14 14 12 10 8 7 6 7 9 11 11 12 12 12 11 11 12 12 11 9 8 7 6 5 4 2 2 3 3 2 2 2
16 14 15 16 16 16 16 16 15 16 16 14 13 14 13 11 9 8 7 8 9 11 11 12 13 12 12 12 12 12 10 9 7 6 6 6 6 6 7 6 8 7 6 5
16 16 17 19 17 15 14 15 16 15 15 15 14 13 13 12 10 8 9 10 11 12 12 12 13 13 13 12 12 12 11 9 7 7 7 7 6 7 7 7 7 7 7 7
12 14 16 15 14 14 15 15 15 15 14 13 13 13 12 11 10 10 10 11 10 11 12 12 13 13 13 13 13 12 11 9 8 7 7 6 6 6 5 5 6 5 6 7
11 12 13 13 13 13 13 13 13 13 13 14 12 12 11 12 11 11 10 9 9 11 12 13 14 14 13 14 14 13 10 9 8 7 7 7 6 6 5 5 4 4 4 6
10 9 9 10 11 12 12 12 13 14 14 14 13 13 13 12 12 11 9 8 10 12 13 13 14 14 14 14 14 11 9 11 10 9 8 8 7 6 6 6 5 4 4 3
8 8 9 10 11 12 12 13 13 14 14 14 15 15 14 12 11 10 9 8 10 11 11 12 13 13 14 15 14 11 10 12 13 9 8 8 7 7 7 6 5 5 4 4
7 8 9 10 10 12 13 13 13 15 15 15 15 14 13 12 11 10 9 8 9 10 11 11 12 14 15 15 13 11 11 11 10 9 9 8 8 7 7 7 7 6 6 6
7 8 9 10 11 11 12 13 14 15 15 15 15 14 13 12 11 10 8 8 9 10 10 10 13 15 15 15 13 10 11 12 11 10 9 10 9 8 7 7 7 6 5 5
8 9 11 12 12 12 13 14 15 15 14 15 15 14 13 12 10 9 8 9 8 7 7 10 14 14 14 15 14 11 12 12 12 11 10 10 9 8 8 7 6 6 5 4
9 11 12 13 14 14 14 15 15 15 15 14 14 14 13 12 10 8 7 7 6 6 8 12 11 11 12 13 15 11 12 12 11 11 10 9 9 8 8 7 7 6 5 4
11 12 14 14 15 15 14 14 14 15 15 14 14 13 12 11 9 7 8 6 4 7 8 9 9 11 14 16 11 11 11 11 10 9 9 9 9 8 8 7 6 5 5 4
12 13 15 15 15 15 16 14 15 14 14 14 13 12 11 9 6 6 6 3 4 9 8 8 11 17 19 12 10 11 11 11 10 9 9 8 8 7 7 7 6 5 5 4
14 15 15 15 15 15 15 15 14 12 13 13 11 10 9 7 5 5 4 3 6 8 7 9 16 20 18 9 10 10 10 10 9 9 8 8 7 7 6 6 5 5 4 4
14 15 15 15 14 12 13 14 14 12 12 9 10 9 7 5 5 4 3 4 7 8 7 12 19 19 12 9 9 9 9 9 9 8 8 8 7 7 6 6 5 5 4 4
14 12 12 13 12 10 10 9 9 9 9 9 8 6 5 4 3 2 2 5 8 8 7 8 11 12 9 9 9 9 9 9 9 8 8 8 8 7 6 6 7 5 4 4
14 12 11 10 10 9 9 8 9 8 8 8 8 7 5 3 3 3 3 4 6 7 7 8 9 9 8 8 9 9 9 9 8 8 8 7 7 6 6 7 5 4 4 3
Wind_Direction
274 280 266 264 259 237 239 259 270 277 278 279 280 278 273 260 242 225 215 210 206 203 200 196 197 198 197 196 194 195 198 207 213 214 213 222 227 236 244 248 258 265 269 271
267 263 260 263 263 259 253 259 266 273 275 277 280 276 266 254 239 227 221 215 209 205 201 199 197 197 194 194 193 195 202 207 206 214 212 220 230 235 241 247 255 259 263 266
274 274 269 264 262 260 256 252 259 269 278 287 281 271 263 257 241 232 226 217 209 205 200 200 199 195 193 194 190 195 202 204 202 207 212 220 225 233 239 243 247 256 258 261
274 273 263 278 304 270 267 269 269 271 281 288 287 284 274 260 248 239 228 218 210 205 198 197 195 192 191 188 190 196 201 202 202 207 212 217 225 235 243 251 251 254 261 262
261 265 269 275 270 242 253 276 311 296 296 302 304 287 262 245 240 239 231 219 208 203 194 192 189 186 186 187 191 196 200 203 201 205 212 218 225 235 243 252 256 256 261 265
246 258 266 280 327 219 255 259 1 338 329 326 315 281 303 326 261 237 225 210 197 189 188 186 183 182 188 190 192 196 197 203 202 204 209 218 228 240 242 245 256 265 265 267
245 255 265 301 7 189 241 330 3 350 341 333 310 300 320 318 292 247 211 195 184 180 183 183 176 179 191 193 197 193 191 194 195 196 205 214 224 230 240 248 259 266 270 268
243 249 260 68 151 243 336 350 342 341 339 330 316 310 313 306 293 251 201 186 182 180 179 177 177 183 192 195 190 180 179 184 188 191 193 195 202 221 239 250 256 264 273 281
259 274 6 15 324 334 338 330 335 332 329 325 316 312 311 305 290 254 216 191 186 183 176 175 181 189 194 185 178 174 175 180 182 181 179 186 192 199 213 231 260 278 289 301
271 272 295 304 308 317 325 323 322 322 321 318 312 310 305 299 285 257 225 202 189 184 183 182 182 189 192 176 173 175 177 178 178 178 175 170 171 184 194 229 259 289 315 319
276 284 292 284 312 322 322 319 317 318 316 313 309 304 300 292 280 261 233 210 199 197 194 188 181 182 182 174 175 180 179 176 177 172 165 157 140 94 105 67 33 358 350 338
274 289 294 296 307 316 315 315 317 315 313 312 308 302 298 290 281 264 241 218 208 204 199 193 184 181 177 176 180 182 180 176 171 163 159 155 144 120 69 82 80 65 40 10
283 291 289 291 297 306 306 309 311 309 308 308 307 303 296 289 281 265 246 228 216 207 201 195 187 183 177 176 182 185 179 171 166 165 163 165 163 159 146 125 108 85 68 54
285 289 285 290 296 303 306 306 305 303 304 305 306 305 298 289 281 266 250 238 225 212 202 195 189 185 177 175 177 180 175 163 162 163 164 165 167 169 167 167 160 137 104 77
284 287 289 294 298 304 308 310 310 308 312 312 311 307 302 293 283 274 263 246 226 213 204 195 191 185 175 174 175 174 168 163 161 155 158 157 156 156 157 158 151 142 139 122
296 296 301 305 309 312 314 315 314 313 314 312 310 308 304 295 288 279 265 241 222 214 206 199 194 182 173 173 171 168 161 152 154 155 156 156 156 156 156 155 152 147 140 124
300 305 313 316 318 318 318 316 314 312 312 311 310 307 303 297 290 282 269 248 235 227 212 202 192 176 174 174 169 163 156 154 159 159 159 158 158 157 155 154 150 141 123 90
299 303 307 311 315 317 317 317 316 315 312 311 309 305 301 295 287 281 274 259 240 230 217 201 184 173 174 175 170 162 158 158 165 160 156 157 156 154 153 151 149 145 137 136
314 315 316 316 316 314 313 313 313 313 313 312 309 303 298 292 288 282 271 252 236 225 212 192 172 174 173 171 165 162 159 157 158 156 154 149 157 155 156 156 155 153 151 152
318 320 320 318 316 314 311 311 310 309 311 312 308 302 298 295 291 281 264 248 237 230 204 180 175 177 171 167 164 163 159 158 157 156 156 160 162 160 160 159 159 159 160 162
313 313 312 314 313 313 312 312 310 309 309 310 306 301 297 294 288 276 261 252 240 214 190 175 178 173 167 161 165 161 159 158 158 158 160 162 163 163 164 164 165 167 168 169
309 309 309 310 310 308 310 310 308 306 306 307 305 301 297 292 286 276 261 255 226 184 178 179 178 166 159 156 162 159 159 158 158 158 161 163 164 166 168 169 171 172 175 180
304 304 304 304 305 306 305 305 305 306 305 305 305 301 296 291 284 273 265 244 205 186 183 179 166 157 157 158 157 157 158 158 158 159 161 163 166 168 169 172 175 176 182 188
295 297 298 299 299 298 300 304 306 305 303 302 301 298 292 287 281 273 270 215 192 182 184 164 159 159 158 158 156 157 157 157 157 159 159 163 166 169 170 173 176 180 186 193
290 292 292 295 295 294 296 301 303 304 303 302 304 301 291 280 277 277 261 206 180 172 165 162 160 159 159 154 156 157 156 156 156 158 162 164 166 170 171 174 181 185 191 199
286 287 287 286 287 288 289 292 294 296 299 301 304 304 295 285 272 257 228 194 177 170 163 159 161 161 161 158 157 157 155 154 157 162 164 164 168 170 173 177 182 187 191 197
283 283 282 282 282 282 281 282 284 288 292 295 299 301 295 281 254 222 201 186 173 167 162 160 161 162 160 158 160 162 162 161 163 164 165 167 169 172 173 177 180 181 182 190